Culebra, VI

12:28 AM AST on February 24, 2017 (GMT -0400)
King

Weather History for TIST - November, 2012

Change the Weather History Date:

Tuesday, November 6, 2012

  Actual Average Record
Temperature  
Mean Temperature 81 °F 82 °F  
Max Temperature 86 °F 88 °F 93 °F (1997)
Min Temperature 76 °F 76 °F 70 °F (1982)
Degree Days  
Heating Degree Days 0 0  
Month to date heating degree days 0 0  
Since 1 July heating degree days 0 0  
Cooling Degree Days 16 17  
Month to date cooling degree days 101 102  
Year to date cooling degree days 5004 5213  
Growing Degree Days 30 (Base 50)    
Moisture  
Dew Point 74 °F    
Average Humidity 82    
Maximum Humidity 94    
Minimum Humidity 69    
Precipitation  
Precipitation 0.15 in 0.19 in 0.91 in (2009)
Month to date precipitation 0.54 1.20  
Year to date precipitation 28.31 32.35  
Sea Level Pressure  
Sea Level Pressure 29.91 in    
Wind  
Wind Speed 8 mph (ESE)    
Max Wind Speed 16 mph    
Max Gust Speed 21 mph    
Visibility 10 miles    
Events      
T = Trace of Precipitation, MM = Missing Value Source: NWS Daily Summary

Daily Weather History Graph

Daily Weather History Graph

Search for Another Location

Airport or City:

Trip Planner

Search our weather history database for the weather conditions in past years. The results will help you decide how hot, cold, wet, or windy it might be!

Date:

Astronomy

Nov. 06, 2012 Rise Set
Actual Time 6:21 AM AST 5:44 PM AST
Civil Twilight 5:59 AM AST 6:07 PM AST
Nautical Twilight 5:33 AM AST 6:33 PM AST
Astronomical Twilight 5:07 AM AST 6:59 PM AST
Moon No Moon Rise 12:18 PM AST (11/6)
Length of Visible Light 12h 08m
Length of Day
11h 23m
Waning Gibbous, 54% of the Moon is Illuminated
Nov 6
Waning Gibbous
Nov 6
Last Quarter
Nov 13
New
Nov 20
First Quarter
Nov 28
Full

Hourly Weather History & Observations

Time (AST) Temp. Heat Index Dew Point Humidity Pressure Visibility Wind Dir Wind Speed Gust Speed Precip Events Conditions
12:53 AM 79.0 °F - 75.0 °F 88% 29.93 in 4.0 mi SE 8.1 mph - 0.11 in   Overcast
1:53 AM 77.0 °F - 75.9 °F 96% 29.90 in 10.0 mi East 6.9 mph - 0.04 in   Overcast
2:53 AM 77.0 °F - 75.0 °F 94% 29.89 in 10.0 mi East 6.9 mph - N/A   Clear
3:53 AM 77.0 °F - 75.0 °F 94% 29.90 in 10.0 mi East 4.6 mph - N/A   Clear
4:53 AM 77.0 °F - 73.9 °F 90% 29.90 in 10.0 mi Calm Calm - N/A   Clear
5:53 AM 77.0 °F - 73.9 °F 90% 29.91 in 10.0 mi East 3.5 mph - N/A   Clear
6:53 AM 78.1 °F - 73.9 °F 87% 29.93 in 10.0 mi Calm Calm - N/A   Clear
7:53 AM 82.0 °F 89.4 °F 75.9 °F 82% 29.94 in 10.0 mi ESE 6.9 mph - N/A   Partly Cloudy
8:53 AM 84.0 °F 91.9 °F 75.0 °F 74% 29.95 in 10.0 mi SE 8.1 mph - N/A   Mostly Cloudy
9:53 AM 84.0 °F 91.2 °F 73.9 °F 72% 29.96 in 10.0 mi SE 9.2 mph - N/A   Clear
10:53 AM 84.9 °F 93.3 °F 75.0 °F 72% 29.94 in 10.0 mi SE 13.8 mph - N/A   Clear
11:53 AM 86.0 °F 95.1 °F 75.0 °F 70% 29.92 in 10.0 mi SSE 10.4 mph - N/A   Partly Cloudy
12:53 PM 84.9 °F 93.3 °F 75.0 °F 72% 29.91 in 10.0 mi SE 12.7 mph - N/A   Clear
1:53 PM 84.9 °F 93.3 °F 75.0 °F 72% 29.88 in 10.0 mi SSE 12.7 mph - N/A   Clear
2:53 PM 84.9 °F 92.1 °F 73.9 °F 69% 29.88 in 10.0 mi SSE 12.7 mph - N/A   Clear
3:53 PM 84.0 °F 91.9 °F 75.0 °F 74% 29.88 in 10.0 mi SSE 12.7 mph - N/A   Clear
4:53 PM 82.9 °F 88.0 °F 72.0 °F 69% 29.89 in 10.0 mi SE 11.5 mph - N/A   Partly Cloudy
5:53 PM 82.0 °F 86.3 °F 71.1 °F 69% 29.90 in 10.0 mi ESE 8.1 mph - N/A   Clear
6:53 PM 80.1 °F 83.8 °F 72.0 °F 76% 29.91 in 10.0 mi East 5.8 mph - N/A   Clear
7:53 PM 80.1 °F 83.8 °F 72.0 °F 76% 29.92 in 10.0 mi East 4.6 mph - N/A   Clear
8:53 PM 79.0 °F - 73.0 °F 82% 29.93 in 10.0 mi East 5.8 mph - N/A   Partly Cloudy
9:53 PM 79.0 °F - 73.0 °F 82% 29.93 in 10.0 mi East 5.8 mph - N/A   Clear
10:53 PM 79.0 °F - 73.9 °F 84% 29.92 in 10.0 mi East 3.5 mph - N/A   Clear
11:53 PM 79.0 °F - 75.0 °F 88% 29.92 in 10.0 mi East 8.1 mph - N/A   Scattered Clouds